This demonstration page uses our WeatherBlox Daily Observations layout. Learn more.

Left ArrowRight Arrow

Hourly Observations for February 5, 2016

Temp ( °F °C ) Dew Point ( °F °C ) Humidity (%) Winds ( mph kmh ) Pressure ( in mb ) Visibility ( mi km ) Precip ( " mm )
12:53 am 00:53 Clear 24 -4.4 20 -6.7 84 84 SW 10 17 30.25 1024 10 16 0.00 0.00
1:53 am 01:53 Clear 25 -3.9 20 -6.7 81 81 SW 9 15 30.25 1024 10 16 0.00 0.00
2:53 am 02:53 Clear 25 -3.9 20 -6.7 81 81 WSW 9 15 30.25 1025 10 16 0.00 0.00
3:53 am 03:53 Clear 27 -2.8 20 -6.7 75 75 SW 14 22 30.25 1024 10 16 0.00 0.00
4:53 am 04:53 Clear 25 -3.9 20 -6.7 81 81 SSW 18 30 30.25 1024 10 16 0.00 0.00
5:53 am 05:53 Clear 28 -2.2 20 -6.7 72 72 SW 23 37 30.25 1024 10 16 0.00 0.00
6:53 am 06:53 Clear 29 -1.7 20 -6.7 69 69 WSW 21 33 30.23 1024 10 16 0.00 0.00
7:53 am 07:53 Sunny 29 -1.7 20 -6.7 69 69 SW 21 33 30.22 1023 10 16 0.00 0.00
8:53 am 08:53 Sunny 33 0.6 22 -5.6 64 64 SW 22 35 30.19 1023 10 16 0.00 0.00
9:53 am 09:53 Sunny 37 2.8 23 -5 57 57 SW 26 43 30.18 1022 10 16 0.00 0.00
10:53 am 10:53 Sunny 40 4.4 26 -3.3 58 58 SW 23 37 30.16 1022 10 16 0.00 0.00
11:53 am 11:53 Sunny 45 7.2 26 -3.3 48 48 SW 22 35 30.13 1020 10 16 0.00 0.00
12:53 pm 12:53 Sunny 47 8.3 26 -3.3 44 44 WSW 28 44 30.11 1020 10 16 0.00 0.00
1:53 pm 13:53 Sunny 49 9.4 25 -3.9 39 39 SW 25 41 30.07 1018 10 16 0.00 0.00
2:53 pm 14:53 Sunny 51 10.6 26 -3.3 38 38 SW 26 43 30.05 1018 10 16 0.00 0.00
3:53 pm 15:53 Sunny 51 10.6 26 -3.3 38 38 WSW 22 35 30.04 1017 10 16 0.00 0.00
4:53 pm 16:53 Sunny 46 7.8 27 -2.8 47 47 SW 15 24 30.04 1017 10 16 0.00 0.00
5:53 pm 17:53 Clear 45 7.2 27 -2.8 49 49 WSW 18 30 30.04 1017 10 16 0.00 0.00
6:53 pm 18:53 Clear 43 6.1 27 -2.8 53 53 SW 17 28 30.04 1017 10 16 0.00 0.00
7:53 pm 19:53 Clear 40 4.4 27 -2.8 60 60 SW 18 30 30.03 1017 10 16 0.00 0.00
8:53 pm 20:53 Partly Cloudy 40 4.4 27 -2.8 60 60 SW 21 33 30.01 1016 10 16 0.00 0.00
9:53 pm 21:53 Mostly Clear 41 5 27 -2.8 57 57 SW 21 33 29.98 1015 10 16 0.00 0.00
10:53 pm 22:53 Mostly Clear 42 5.6 27 -2.8 55 55 SW 22 35 29.95 1014 10 16 0.00 0.00
11:53 pm 23:53 Mostly Cloudy 43 6.1 27 -2.8 53 53 SW 20 31 29.92 1013 10 16 0.00 0.00

Powered by AerisWeather